C/2017 D3 ( ATLAS )

Japanese version
Home page
Updated on October 8, 2017

---------------------------------------------------------------------

* Profile

Discovery Date February 23, 2017
Magnitude 18.0 mag
Discoverer Asteroid Terrestrial-impact Last Alert System (ATLAS) Team

* Pictures

* Orbital Elements

Epoch 2017 May 7.0 TT = JDT 2457880.5
T 2017 Apr. 26.88398 TT                                 MPCW
q   4.9713354            (2000.0)            P               Q
z  -0.0004179      Peri.  340.77431     -0.91590213     -0.39037458
 +/-0.0000095      Node   186.60255     -0.16805715     +0.16153272
e   1.0020774      Incl.  125.64425     -0.36452720     +0.90637457
From 264 observations 2017 Feb. 10-July 17, mean residual 0".5.

* Magnitudes Graph

        m1 = 7.0 + 5 log d + 10.0 log r

---------------------------------------------------------------------

The orbital elements are published on M.P.E.C. 2017-T14.
The magnitudes graphs are made with Comet for Windows.

---------------------------------------------------------------------

Copyright(C) Seiichi Yoshida (comet@aerith.net). All rights reserved.